Location: Branche des Alpilles
(43.6087°N, 4.6976°E)
Time: 04:44:02
(UTC+00:00)

Cosmos 2239 Rocket - Pass Details

Date: 30 November 2020
Orbit: 955 x 990 km, 82.9° (Epoch: 24 January)

Event Time Altitude Azimuth Distance (km) Brightness Sun altitude
Rises 18:11:50 0° 353° (N) 3,648 7.5 -22.2°
Reaches altitude 10° 18:14:20 10° 355° (N) 2,701 6.8 -22.6°
Maximum altitude 18:20:32 77° 81° (E) 991 4.3 -23.8°
Drops below altitude 10° 18:26:43 10° 168° (SSE) 2,703 6.8 -24.9°
Sets 18:29:14 0° 170° (S) 3,651 7.5 -25.3°
